Weather History for Phoenix Deer Valley, AZ

Change the Weather History Date:

Saturday, February 15, 2014

  Actual Average Record
Temperature  
Mean Temperature 67 °F -  
Max Temperature 82 °F 65 °F 82 °F (2014)
Min Temperature 52 °F 45 °F 37 °F (2001)
Cooling Degree Days 2    
Growing Degree Days 17 (Base 50)    
Moisture  
Dew Point 27 °F    
Average Humidity 25    
Maximum Humidity 40    
Minimum Humidity 12    
Precipitation  
Precipitation 0.00 in - - ()
Sea Level Pressure  
Sea Level Pressure 29.95 in    
Wind  
Wind Speed 3 mph (SW)    
Max Wind Speed 7 mph    
Max Gust Speed -    
Visibility 10 miles    
Events      
Averages and records for this station are not official NWS values.
T = Trace of Precipitation, MM = Missing Value Source: NWS Daily Summary

Daily Weather History Graph

Daily Weather History Graph

Search for Another Location

Airport:

Trip Planner

Search our weather history database for the weather conditions in past years. The results will help you decide how hot, cold, wet, or windy it might be!

Date:

Astronomy

Feb. 15, 2014 Rise Set
Actual Time 7:12 AM MST 6:12 PM MST
Civil Twilight 6:46 AM MST 6:38 PM MST
Nautical Twilight 6:17 AM MST 7:07 PM MST
Astronomical Twilight 5:48 AM MST 7:36 PM MST
Moon 7:10 PM MST (2/15) 7:17 AM MST (2/15)
Length of Visible Light 11h 51m
Length of Day
11h 00m
Waxing Gibbous, 99% of the Moon is Illuminated
Feb 15
Waxing Gibbous
Feb 22
Last Quarter
Mar 1
New
Mar 8
First Quarter
Mar 16
Full

Hourly Weather History & Observations

Time (MST) Temp. Dew Point Humidity Pressure Visibility Wind Dir Wind Speed Gust Speed Precip Events Conditions
12:53 AM 60.1 °F 28.0 °F 30% 29.96 in 10.0 mi NE 6.9 mph - N/A   Clear
1:53 AM 57.0 °F 28.0 °F 33% 29.95 in 10.0 mi Calm Calm - N/A   Clear
2:53 AM 55.9 °F 28.0 °F 34% 29.94 in 10.0 mi Calm Calm - N/A   Clear
3:53 AM 57.0 °F 28.0 °F 33% 29.94 in 10.0 mi NE 5.8 mph - N/A   Clear
4:53 AM 53.1 °F 28.0 °F 38% 29.95 in 10.0 mi Calm Calm - N/A   Clear
5:53 AM 52.0 °F 28.0 °F 40% 29.95 in 10.0 mi Calm Calm - N/A   Clear
6:53 AM 55.9 °F 28.0 °F 34% 29.97 in 10.0 mi NNE 5.8 mph - N/A   Clear
7:53 AM 57.0 °F 27.0 °F 32% 29.99 in 10.0 mi North 5.8 mph - N/A   Clear
8:53 AM 61.0 °F 30.0 °F 31% 30.00 in 10.0 mi Calm Calm - N/A   Clear
9:53 AM 68.0 °F 32.0 °F 26% 30.01 in 10.0 mi Calm Calm - N/A   Clear
10:53 AM 72.0 °F 30.0 °F 21% 30.01 in 10.0 mi WSW 3.5 mph - N/A   Clear
11:53 AM 75.9 °F 28.9 °F 18% 29.99 in 10.0 mi SSW 4.6 mph - N/A   Clear
12:53 PM 77.0 °F 28.0 °F 17% 29.98 in 10.0 mi SW 3.5 mph - N/A   Clear
1:53 PM 80.1 °F 27.0 °F 14% 29.94 in 10.0 mi Calm Calm - N/A   Clear
2:53 PM 82.0 °F 25.0 °F 12% 29.93 in 10.0 mi Calm Calm - N/A   Clear
3:53 PM 82.0 °F 25.0 °F 12% 29.90 in 10.0 mi South 4.6 mph - N/A   Clear
4:53 PM 82.0 °F 24.1 °F 12% 29.90 in 10.0 mi SW 5.8 mph - N/A   Clear
5:53 PM 79.0 °F 24.1 °F 13% 29.89 in 10.0 mi SSW 5.8 mph - N/A   Clear
6:53 PM 73.0 °F 26.1 °F 17% 29.92 in 10.0 mi Calm Calm - N/A   Clear
7:53 PM 68.0 °F 26.1 °F 21% 29.93 in 10.0 mi Calm Calm - N/A   Clear
8:53 PM 62.1 °F 27.0 °F 26% 29.94 in 10.0 mi Calm Calm - N/A   Clear
9:53 PM 64.9 °F 27.0 °F 24% 29.93 in 10.0 mi Calm Calm - N/A   Clear
10:53 PM 63.0 °F 27.0 °F 26% 29.93 in 10.0 mi Calm Calm - N/A   Clear
11:53 PM 63.0 °F 27.0 °F 26% 29.93 in 10.0 mi NNE 4.6 mph - N/A   Clear